Alturas, CA

2:52 PM PST on February 19, 2018 (GMT -0800)
Alturas Municipal

Weather History for KAAT - January, 2012

Change the Weather History Date:

Monday, January 16, 2012

  Actual Average Record
Temperature  
Mean Temperature 15 °F 30 °F  
Max Temperature 29 °F 42 °F 62 °F (1961)
Min Temperature 1 °F 18 °F -27 °F (1917)
Degree Days  
Heating Degree Days 50 35  
Month to date heating degree days 537 572  
Since 1 July heating degree days 3238 3482  
Cooling Degree Days 0 0  
Month to date cooling degree days 0 0  
Year to date cooling degree days 0 0  
Moisture  
Dew Point 6 °F    
Average Humidity 63    
Maximum Humidity 92    
Minimum Humidity 34    
Precipitation  
Precipitation 0.00 in 0.04 in 0.50 in (1952)
Month to date precipitation T 1.01  
Year to date precipitation T 1.01  
Sea Level Pressure  
Sea Level Pressure 30.22 in    
Wind  
Wind Speed 1 mph (SSW)    
Max Wind Speed 9 mph    
Max Gust Speed 13 mph    
Visibility 9 miles    
Events      
T = Trace of Precipitation, MM = Missing Value Source: NWS Daily Summary

Daily Weather History Graph

Daily Weather History Graph

Search for Another Location

Airport or City:

Trip Planner

Search our weather history database for the weather conditions in past years. The results will help you decide how hot, cold, wet, or windy it might be!

Date:

Astronomy

Jan. 16, 2012 Rise Set
Actual Time 7:26 AM PST 4:58 PM PST
Civil Twilight 6:55 AM PST 5:28 PM PST
Nautical Twilight 6:21 AM PST 6:02 PM PST
Astronomical Twilight 5:48 AM PST 6:36 PM PST
Moon 12:39 AM PST (1/16) 11:16 AM PST (1/16)
Length of Visible Light 10h 33m
Length of Day
9h 32m
Last Quarter, 45% of the Moon is Illuminated
Jan 16
Last Quarter
Jan 22
New
Jan 30
First Quarter
Feb 7
Full
Feb 14
Last Quarter

Hourly Weather History & Observations

Time (PST) Temp. Windchill Dew Point Humidity Pressure Visibility Wind Dir Wind Speed Gust Speed Precip Events Conditions
12:18 AM 12.2 °F 6.1 °F 8.6 °F 85% 29.98 in 10.0 mi SW 3.5 mph - N/A   Overcast
12:55 AM 12.0 °F - 8.1 °F 84% 30.10 in 10.0 mi Calm Calm - N/A   Scattered Clouds
1:55 AM 10.9 °F - 8.1 °F 88% 30.13 in 10.0 mi Calm Calm - N/A   Mostly Cloudy
2:55 AM 10.9 °F - 8.1 °F 88% 30.14 in 10.0 mi Calm Calm - N/A   Overcast
3:55 AM 10.0 °F - 7.0 °F 87% 30.16 in 10.0 mi Calm Calm - N/A   Scattered Clouds
4:55 AM 8.1 °F - 5.0 °F 87% 30.17 in 10.0 mi Calm Calm - N/A   Clear
5:55 AM 9.0 °F -0.9 °F 6.1 °F 88% 30.19 in 10.0 mi SSE 5.8 mph - N/A   Partly Cloudy
6:09 AM 8.6 °F -1.3 °F 6.8 °F 92% 30.06 in 10.0 mi Variable 5.8 mph - N/A   Mostly Cloudy
6:55 AM 9.0 °F - 5.0 °F 84% 30.20 in 10.0 mi Calm Calm - N/A   Overcast
7:55 AM 9.0 °F - 7.0 °F 92% 30.24 in 10.0 mi Calm Calm - N/A   Overcast
8:55 AM 10.0 °F - 7.0 °F 87% 30.27 in 10.0 mi Calm Calm - N/A   Mostly Cloudy
9:55 AM 18.0 °F - 12.9 °F 81% 30.27 in 10.0 mi Calm Calm - N/A   Overcast
10:55 AM 23.0 °F - 12.0 °F 63% 30.27 in 10.0 mi Calm Calm - N/A   Overcast
11:29 AM 23.0 °F 17.0 °F 10.4 °F 59% 30.15 in 10.0 mi WSW 4.6 mph - N/A   Mostly Cloudy
11:55 AM 25.0 °F 18.1 °F 10.0 °F 53% 30.26 in 10.0 mi South 5.8 mph - N/A   Scattered Clouds
12:55 PM 26.1 °F - 9.0 °F 49% 30.25 in 10.0 mi Calm Calm - N/A   Overcast
1:55 PM 27.0 °F 20.5 °F 8.1 °F 45% 30.24 in 10.0 mi South 5.8 mph - N/A   Scattered Clouds
2:55 PM 28.0 °F - 6.1 °F 39% 30.23 in 10.0 mi Calm Calm - N/A   Clear
3:55 PM 28.0 °F 24.2 °F 3.9 °F 36% 30.23 in 10.0 mi SW 3.5 mph - N/A   Partly Cloudy
4:55 PM 23.0 °F 17.0 °F 1.9 °F 40% 30.25 in 10.0 mi SW 4.6 mph - N/A   Clear
5:55 PM 18.0 °F 11.1 °F 3.9 °F 54% 30.28 in 10.0 mi South 4.6 mph - N/A   Clear
6:55 PM 14.0 °F - 3.9 °F 64% 30.30 in 8.0 mi Calm Calm - N/A   Clear
7:55 PM 9.0 °F - 3.0 °F 77% 30.32 in 9.0 mi Calm Calm - N/A   Clear
8:55 PM 7.0 °F - 3.0 °F 84% 30.33 in 10.0 mi Calm Calm - N/A   Clear
9:55 PM 7.0 °F - 1.0 °F 77% 30.32 in 10.0 mi Calm Calm - N/A   Clear
10:55 PM 6.1 °F -0.9 °F 1.9 °F 83% 30.31 in 9.0 mi SE 3.5 mph - N/A   Clear
11:42 PM 3.2 °F - -2.2 °F 78% 30.16 in 2.0 mi Calm Calm - N/A   Haze
11:53 PM 1.4 °F - -2.2 °F 85% 30.16 in 6.0 mi Calm Calm - N/A   Clear
11:55 PM 1.9 °F - -2.9 °F 80% 30.32 in 7.0 mi Calm Calm - N/A   Clear